STARLINK-33939

Last updated on Thu May 29 2025 00:02:04 GMT+0000 (Coordinated Universal Time)

1 63702U 25087F 25148.58334491 -.01666765 00000+0 -39908-1 0 9995 2 63702 53.1609 109.6051 0001290 65.9679 73.3805 15.44266446 5463
UTC large
Height (km)
Speed (km/s)
/
Latitude / Longitude
Inclination (degrees)
Orbital Period (minutes)
Azimuth
Elevation
Range (km)
Doppler Factor

Next 0 passes for location: London (51.5072 / 0.1276)

Sorry there are no passes over London.